Regional Weather Roundup
Issued by NWS

Home | Current Version | Previous Version | Graphics & Text | Print | Product List | Glossary On
Versions: 1 2 3 4 5 6 7 8 9 10 11 12 13 14 15 16 17 18 19 20 21 22 23 24 25 26 27 28 29 30 31 32 33 34 35 36 37 38 39 40 41 42 43 44 45 46 47 48 49 50
000
ASUS45 KPSR 272200
RWRAZ

ARIZONA HOURLY REGIONAL WEATHER ROUNDUP
NATIONAL WEATHER SERVICE PHOENIX AZ
300 PM MST MON JUL 27 2015

NOTE: FAIR INDICATES FEW OR NO CLOUDS BELOW 12,000 FEET WITH NO
SIGNIFICANT WEATHER AND/OR OBSTRUCTIONS TO VISIBILITY.

AZZ001>003-036-272300-
NORTHWEST ARIZONA

CITY           SKY/WX    TMP DP  RH WIND       PRES   REMARKS
KINGMAN        SUNNY     95  18   6 SW17      29.94F
$$

AZZ004>008-015-016-018-272300-
NORTH CENTRAL ARIZONA

CITY           SKY/WX    TMP DP  RH WIND       PRES   REMARKS
GRAND CANYON   SUNNY     85  24  11 SW18G28   30.15F
WILLIAMS       SUNNY     81  39  22 SW16G26   30.25F
PRESCOTT       MOSUNNY   86  46  24 SW14G22   30.08F
FLAGSTAFF      NOT AVBL
PAYSON         SUNNY     88  43  20 SW15G23   30.10F
PAGE           SUNNY     96  26   8 SW8       29.91F
$$

AZZ009>014-017-272300-
NORTHEAST ARIZONA

CITY           SKY/WX    TMP DP  RH WIND       PRES   REMARKS
WINSLOW        NOT AVBL
SAINT JOHNS    PTSUNNY   89  42  19 SW12G23   30.08F
WINDOW ROCK    SUNNY     88  34  14 SW14G28   30.16F
SHOW LOW       SUNNY     82  37  20 SW18G29   30.17F
$$

AZZ023-272300-
GREATER PHOENIX AREA

CITY           SKY/WX    TMP DP  RH WIND       PRES   REMARKS
PHOENIX        MOSUNNY  104  50  16 W9        29.77F HX 101
GLENDALE       MOSUNNY  102  54  19 SW8G16    29.79F HX 100
LUKE AFB       SUNNY    102  54  19 SW8       29.77F HX 100
DEER VALLEY    SUNNY    100  51  19 VRB6G16   29.80F
SCOTTSDALE     SUNNY    102  48  16 W6        29.82F
MESA-FALCON    MOSUNNY   88  48  25 W9G17     29.80F
MESA-GATEWAY   MOSUNNY  102  50  17 W7        29.82F
CHANDLER       MOSUNNY  102  50  17 SW12      29.79F
$$

AZZ027-028-272300-
SOUTHWEST MARICOPA COUNTY AND PINAL COUNTY

CITY           SKY/WX    TMP DP  RH WIND       PRES   REMARKS
CASA GRANDE    SUNNY    100  54  20 CALM      29.79F
GILA BEND      MOSUNNY  104  54  18 W17G24    29.75F HX 102
$$

AZZ503-504-507>509-272300-
SOUTHEAST ARIZONA

CITY           SKY/WX    TMP DP  RH WIND       PRES   REMARKS
TUCSON         MOSUNNY  100  45  15 W10       29.91F
RYAN FIELD     SUNNY     99  48  18 S8        29.90F
SIERRA VISTA   MOSUNNY   90  50  25 SW8       30.06F
SAFFORD        MOSUNNY   99  48  17 W12G24    29.89F
$$

AZZ020-021-025-026-031-272300-
SOUTHWEST ARIZONA

CITY           SKY/WX    TMP DP  RH WIND       PRES   REMARKS
YUMA           NOT AVBL
$$

CAZ031-033-041-043-047-048-061-272300-
SOUTHERN CALIFORNIA

CITY           SKY/WX    TMP DP  RH WIND       PRES   REMARKS
DOWNTOWN L.A.  SUNNY     77  61  57 VRB3      29.89F
L.A. AIRPORT   MOSUNNY   74  61  63 W13       29.91F
SAN DIEGO      MOSUNNY   74  58  57 SW12      29.92F
BURBANK        SUNNY     81  59  47 S10       29.89F
ONTARIO        SUNNY     87  54  32 W9G18     29.88F
RIVERSIDE      SUNNY     88  57  34 VRB7      29.87F
PALM SPRINGS   SUNNY    104  44  13 N13       29.76F
EL CENTRO NAS  MOSUNNY  106  27   6 S8        29.72F
IMPERIAL       SUNNY    104  30   7 VRB3      29.70F
BLYTHE         SUNNY    104  21   5 S12G20    29.73F
$$

NVZ020-UTZ003-272300-
SOUTHERN NEVADA-UTAH

CITY           SKY/WX    TMP DP  RH WIND       PRES   REMARKS
LAS VEGAS      NOT AVBL
SALT LAKE CITY MOSUNNY   75  42  30 NW15      30.04S
$$

NMZ009-TXZ055-272300-
NEW MEXICO-WEST TEXAS

CITY           SKY/WX    TMP DP  RH WIND       PRES   REMARKS
ALBUQUERQUE    MOSUNNY   90  48  23 VRB5      30.06F
EL PASO        MOSUNNY   98  50  19 VRB7      29.93F
$$


........................KEY........................
SKY/WX - SKY CONDITION/WEATHER
TMP    - TEMPERATURE IN FAHRENHEIT
DP     - DEW POINT IN FAHRENHEIT
RH     - RELATIVE HUMIDITY IN PERCENT
WIND   - DIRECTION AND SPEED IN MILES PER HOUR (MPH)
VRB    - VARIABLE WIND DIRECTION
PRES   - MEAN SEA LEVEL PRESSURE IN INCHES OF MERCURY
         F - FALLING PRESSURE   R - RISING PRESSURE
         S - STEADY PRESSURE
VSB    - VISIBILITY IN MILES
HX     - HEAT INDEX IN FAHRENHEIT
WCI    - WIND CHILL INDEX IN FAHRENHEIT
TC     - TEMPERATURE IN CELSIUS WHICH IS ALSO KNOWN AS
         TEMPERATURE IN CENTIGRADE
AFB    - AIR FORCE BASE
         LUKE AFB IS LUKE AIR FORCE BASE
         DAVIS-MONTHAN IS DAVIS-MONTHAN AIR FORCE BASE
NAS    - NAVAL AIR STATION
         EL CENTRO NAS IS EL CENTRO NAVAL AIR STATION
N/A    - NOT AVAILABLE




USA.gov is the U.S. government's official web portal to all federal, state and local government web resources and services.